{"data":{"norad_id":53147,"intl_designator":"2022-083R","name":"STARLINK-4094","alt_names":[],"object_type":"PAYLOAD","status":"ACTIVE","operator":null,"country":"US","launch_date":"2022-07-17","launch_site_code":"AFETR","launch_vehicle":null,"mission":null,"orbit_class":"UNKNOWN","rcs_meters":null,"size_class":null,"mass_kg":null,"dimensions":null,"purposes":["comms"],"wikipedia_slug":null,"has_3d_model":false,"image_url":null,"decayed_at":null,"tle_current":{"epoch":"2026-09-19T21:56:21.803136Z","epoch_age_seconds":122827,"freshness":"FRESH","line1":"1 53147U 22083R   26262.91414124  .00000626  00000+0  29651-4 0  9999","line2":"2 53147  53.1615   6.1380 0000864  76.2880 283.8219 15.34393786231413","mean_motion":15.34393786,"eccentricity":8.64e-5,"inclination_deg":53.1615,"raan_deg":6.138,"arg_perigee_deg":76.288,"mean_anomaly_deg":283.8219,"bstar":2.9651e-5,"rev_number":23141,"period_min":93.848138146722,"perigee_km":462.13065939447,"apogee_km":463.31275977948,"semimajor_km":6840.858709587,"source":"CELESTRAK","updated_at":"2026-09-20T09:00:40.181099Z"}}}